Weather reports worldwide

Advertisment
Ojmjakon, Russia (24688): temperature & dewpoint: 18.04.2019 17:00:00 - 24.04.2019 17:00:00 (MAGT)Ojmjakon, Russia (24688): wind speed: 18.04.2019 17:00:00 - 24.04.2019 17:00:00 (MAGT)Ojmjakon, Russia (24688): wind direction: 18.04.2019 17:00:00 - 24.04.2019 17:00:00 (MAGT)Ojmjakon, Russia (24688): reduced air pressure: 18.04.2019 17:00:00 - 24.04.2019 17:00:00 (MAGT)Ojmjakon, Russia (24688): visibility: 18.04.2019 17:00:00 - 24.04.2019 17:00:00 (MAGT)
Date & Time tt [°C] td [°C] ff [km/h] ff [kn] dd ppp [hPa] vv [km]
24.04.2019 17:00:00 - - - - - - -
24.04.2019 16:00:00 0,7 -8,4 4 2 S 1012,5 50
24.04.2019 15:00:00 - - - - - - -
24.04.2019 14:00:00 - - - - - - -
24.04.2019 13:00:00 -0,8 -8,1 7 4 NNE 1013,5 50
24.04.2019 12:00:00 - - - - - - -
24.04.2019 11:00:00 - - - - - - -
24.04.2019 10:00:00 -1,8 -8,8 7 4 WSW 1014,3 50
24.04.2019 09:00:00 - - - - - - -
24.04.2019 08:00:00 - - - - - - -
24.04.2019 07:00:00 -8,5 -10,0 7 4 SSW 1017,0 50
24.04.2019 06:00:00 - - - - - - -
24.04.2019 05:00:00 - - - - - - -
24.04.2019 04:00:00 -9,5 -10,7 0 0 N 1016,4 50
24.04.2019 03:00:00 - - - - - - -
24.04.2019 02:00:00 - - - - - - -
24.04.2019 01:00:00 -9,7 -10,5 7 4 S 1015,5 50
24.04.2019 00:00:00 - - - - - - -
23.04.2019 23:00:00 - - - - - - -
23.04.2019 22:00:00 -6,4 -8,0 7 4 WNW 1013,6 50
23.04.2019 21:00:00 - - - - - - -
23.04.2019 20:00:00 - - - - - - -
23.04.2019 19:00:00 -1,5 -6,7 7 4 W 1010,8 10
23.04.2019 18:00:00 - - - - - - -
23.04.2019 17:00:00 - - - - - - -
23.04.2019 16:00:00 -0,1 -9,6 7 4 W 1009,8 50
23.04.2019 15:00:00 - - - - - - -
23.04.2019 14:00:00 - - - - - - -
23.04.2019 13:00:00 -0,3 -7,7 11 6 SSE 1009,9 50
23.04.2019 12:00:00 - - - - - - -
23.04.2019 11:00:00 - - - - - - -
23.04.2019 10:00:00 -2,6 -10,0 11 6 SSW 1011,4 50
23.04.2019 09:00:00 - - - - - - -
23.04.2019 08:00:00 - - - - - - -
23.04.2019 07:00:00 -8,0 -10,7 0 0 N 1013,4 50
23.04.2019 06:00:00 - - - - - - -
23.04.2019 05:00:00 - - - - - - -
23.04.2019 04:00:00 -8,9 -10,4 7 4 ENE 1013,8 50
23.04.2019 03:00:00 - - - - - - -
23.04.2019 02:00:00 - - - - - - -
23.04.2019 01:00:00 -6,2 -9,3 7 4 NE 1013,1 50
23.04.2019 00:00:00 - - - - - - -
22.04.2019 23:00:00 - - - - - - -
22.04.2019 22:00:00 -3,5 -7,1 7 4 ESE 1012,0 50
22.04.2019 21:00:00 - - - - - - -
22.04.2019 20:00:00 - - - - - - -
22.04.2019 19:00:00 -1,8 -5,1 7 4 ENE 1011,5 50
22.04.2019 18:00:00 - - - - - - -
22.04.2019 17:00:00 - - - - - - -
22.04.2019 16:00:00 -1,9 -5,7 11 6 SSW 1011,8 4,0
22.04.2019 15:00:00 - - - - - - -
22.04.2019 14:00:00 - - - - - - -
22.04.2019 13:00:00 0,4 -8,2 11 6 ESE 1011,1 50
22.04.2019 12:00:00 - - - - - - -
22.04.2019 11:00:00 - - - - - - -
22.04.2019 10:00:00 -0,4 -9,6 14 8 SE 1012,4 50
22.04.2019 09:00:00 - - - - - - -
22.04.2019 08:00:00 - - - - - - -
22.04.2019 07:00:00 -3,0 -8,0 7 4 ESE 1014,1 50
22.04.2019 06:00:00 - - - - - - -
22.04.2019 05:00:00 - - - - - - -
22.04.2019 04:00:00 -2,9 -7,5 7 4 E 1014,5 50
22.04.2019 03:00:00 - - - - - - -
22.04.2019 02:00:00 - - - - - - -
22.04.2019 01:00:00 -1,9 -7,6 7 4 SSE 1014,3 50
22.04.2019 00:00:00 - - - - - - -
21.04.2019 23:00:00 - - - - - - -
21.04.2019 22:00:00 -0,8 -7,2 7 4 SE 1013,8 20
21.04.2019 21:00:00 - - - - - - -
21.04.2019 20:00:00 - - - - - - -
21.04.2019 19:00:00 0,7 -7,5 14 8 SE 1012,7 50
21.04.2019 18:00:00 - - - - - - -
21.04.2019 17:00:00 - - - - - - -
21.04.2019 16:00:00 1,9 -7,0 14 8 SSE 1012,0 50
21.04.2019 15:00:00 - - - - - - -
21.04.2019 14:00:00 - - - - - - -
21.04.2019 13:00:00 1,3 -7,9 18 10 S 1013,3 50
21.04.2019 12:00:00 - - - - - - -
21.04.2019 11:00:00 - - - - - - -
21.04.2019 10:00:00 0,6 -6,0 18 10 ESE 1013,6 50
21.04.2019 09:00:00 - - - - - - -
21.04.2019 08:00:00 - - - - - - -
21.04.2019 07:00:00 -3,1 -7,0 14 8 ESE 1015,6 50
21.04.2019 06:00:00 - - - - - - -
21.04.2019 05:00:00 - - - - - - -
21.04.2019 04:00:00 -2,8 -6,5 11 6 E 1015,6 50
21.04.2019 03:00:00 - - - - - - -
21.04.2019 02:00:00 - - - - - - -
21.04.2019 01:00:00 -3,2 -7,9 7 4 ESE 1015,9 50
21.04.2019 00:00:00 - - - - - - -
20.04.2019 23:00:00 - - - - - - -
20.04.2019 22:00:00 -2,2 -8,5 7 4 SE 1016,0 50
20.04.2019 21:00:00 - - - - - - -
20.04.2019 20:00:00 - - - - - - -
20.04.2019 19:00:00 1,2 -8,5 11 6 ESE 1014,6 50
20.04.2019 18:00:00 - - - - - - -
20.04.2019 17:00:00 - - - - - - -
20.04.2019 16:00:00 1,1 -6,7 14 8 ESE 1015,0 50
20.04.2019 15:00:00 - - - - - - -
20.04.2019 14:00:00 - - - - - - -
20.04.2019 13:00:00 0,1 -6,3 7 4 ESE 1016,9 20
20.04.2019 12:00:00 - - - - - - -
20.04.2019 11:00:00 - - - - - - -
20.04.2019 10:00:00 -4,6 -6,6 11 6 NNE 1018,6 50
20.04.2019 09:00:00 - - - - - - -
20.04.2019 08:00:00 - - - - - - -
20.04.2019 07:00:00 -6,2 -8,1 4 2 N 1019,2 50
20.04.2019 06:00:00 - - - - - - -
20.04.2019 05:00:00 - - - - - - -
20.04.2019 04:00:00 -6,6 -7,1 7 4 W 1018,2 2,0
20.04.2019 03:00:00 - - - - - - -
20.04.2019 02:00:00 - - - - - - -
20.04.2019 01:00:00 -6,2 -6,6 7 4 W 1017,6 2,0
20.04.2019 00:00:00 - - - - - - -
19.04.2019 23:00:00 - - - - - - -
19.04.2019 22:00:00 -5,3 -6,0 4 2 WNW 1017,6 4,0
19.04.2019 21:00:00 - - - - - - -
19.04.2019 20:00:00 - - - - - - -
19.04.2019 19:00:00 -4,4 -5,3 4 2 N 1017,4 4,0
19.04.2019 18:00:00 - - - - - - -
19.04.2019 17:00:00 - - - - - - -
19.04.2019 16:00:00 -4,0 -7,0 4 2 N 1017,6 20
19.04.2019 15:00:00 - - - - - - -
19.04.2019 14:00:00 - - - - - - -
19.04.2019 13:00:00 -4,7 -10,4 7 4 NNE 1018,8 20
19.04.2019 12:00:00 - - - - - - -
19.04.2019 11:00:00 - - - - - - -
19.04.2019 10:00:00 -6,3 -12,3 0 0 N 1020,3 50
19.04.2019 09:00:00 - - - - - - -
19.04.2019 08:00:00 - - - - - - -
19.04.2019 07:00:00 -10,3 -14,7 7 4 W 1021,7 50
19.04.2019 06:00:00 - - - - - - -
19.04.2019 05:00:00 - - - - - - -
19.04.2019 04:00:00 -11,4 -16,7 7 4 W 1021,3 50
19.04.2019 03:00:00 - - - - - - -
19.04.2019 02:00:00 - - - - - - -
19.04.2019 01:00:00 -8,8 -13,7 4 2 W 1019,5 50
19.04.2019 00:00:00 - - - - - - -
18.04.2019 23:00:00 - - - - - - -
18.04.2019 22:00:00 -6,1 -13,0 11 6 WNW 1016,9 50
18.04.2019 21:00:00 - - - - - - -
18.04.2019 20:00:00 - - - - - - -
18.04.2019 19:00:00 -2,1 -12,2 14 8 WNW 1012,6 50
18.04.2019 18:00:00 - - - - - - -
18.04.2019 17:00:00 - - - - - - -

tt = temperature
td = dewpoint
ff = wind speed
dd = wind direction
ppp = reduced air pressure
vv = visibility

Next stations